Vertical_Velocity
-1 -0 -1 0 1 0 -0 -1 0 -0 -0 0 0 0 0 0 -0 -0 -1 -0 -1 -0 -1 0 0 0 -0 -0 -0 -1 -1 -0 -0 -0 0 0 -1 -1 -1 -1 -1 -1 -0
-1 -0 -1 1 0 1 1 0 1 0 1 -0 -1 -1 -1 -1 -0 0 -1 -1 0 -1 -1 -1 -1 1 2 1 1 -0 -1 -1 -2 -1 -1 -0 -0 -0 0 1 0 -0 -0
-1 -1 -0 1 -0 -0 -0 0 -0 -0 -0 -1 -1 -1 -1 -1 -1 -1 0 -0 0 -1 -2 -1 -1 -1 -0 1 1 -0 -0 0 0 0 0 -0 -1 0 -1 -1 -0 1 1
-0 0 1 1 1 1 -0 -1 -1 -1 -1 -2 -1 -0 -0 0 0 -1 -1 -1 -1 -1 -1 -1 -1 -1 -1 -2 -1 -1 -2 2 0 -0 -1 -0 -1 -1 -0 0 0 0 0
-0 1 1 0 0 -1 -1 -1 -0 -0 -1 -0 -1 -0 -1 -1 -0 -1 -1 -0 -1 -1 -1 0 -1 -0 -1 -1 -1 -1 -2 -0 -2 -0 -1 -1 -0 -0 1 1 1 0 0
-0 -0 -0 0 -1 -0 -1 -1 -1 -1 -1 -0 -1 -1 -1 -2 -2 -1 -1 -1 -1 -1 -1 -1 -1 -1 -0 1 1 -0 -0 1 -0 -0 1 2 2 2 0 0 0 0 1
-1 -0 0 -0 -0 -0 -0 0 0 -1 -0 -1 -1 -2 -2 -1 -1 -1 -1 -1 -1 -1 -1 -1 -0 -1 0 -1 -0 -2 -1 -1 0 0 1 0 -0 0 -0 2 3 2 1
-0 -0 -0 0 -1 -1 -2 -2 -1 -1 -1 -1 -1 -2 -2 -0 0 -0 -1 -2 -1 -1 -1 -2 -3 -2 -1 -2 -2 -2 -1 -1 -1 1 2 1 1 1 -1 -0 -0 -0 1
-0 -1 -0 -1 -2 -1 -1 -1 -1 -1 -1 -1 -1 -1 -0 -0 -1 -1 -1 -1 -1 -1 -1 -2 -1 -1 0 -0 -0 0 -0 -1 -0 0 -1 -1 1 2 1 1 0 0 1
-1 -0 -1 -1 -1 -1 -1 -1 -1 -1 -2 -2 -2 -0 -0 1 -0 -0 -1 -2 -2 -2 -2 -2 -2 -1 -1 -1 -1 0 0 -0 0 -1 -2 -2 -2 -0 -0 1 -0 0 0
-0 -1 -1 -0 -1 -2 -2 -2 -2 -3 -2 -2 -1 -2 -1 -1 -1 -2 -1 -0 -1 -1 -2 -1 -1 -1 -0 0 1 -1 -1 -1 0 -1 -2 -1 -2 -1 1 -2 -2 -0 -1
-0 -0 -1 -0 -0 -0 -0 -2 -2 -2 -2 -1 1 1 -0 -1 -0 -1 -1 -1 -2 -2 -1 -1 -0 1 -1 -1 -1 -1 -2 -2 1 1 0 -0 -2 -1 -1 -1 0 1 -1
1 0 -0 -1 -1 0 -1 -2 -2 -2 -2 -1 -1 -1 -1 -1 -2 -2 -1 -2 -2 -2 -1 -1 -0 -1 -1 -0 -1 -1 0 -1 -1 -1 -1 -1 -2 -1 -1 -1 0 -1 -1
-1 -1 -0 0 -2 0 -1 -3 -2 -1 -1 -1 -1 -1 -1 -0 -1 -1 -1 -2 -1 -1 -2 -3 0 1 -1 -0 -1 -0 -1 -1 1 -0 -0 1 -0 -1 0 -1 -1 -1 -1
-0 -0 -0 -1 -2 1 -2 -2 -2 -1 -1 0 -1 -0 0 0 -1 -1 0 1 -1 -1 -1 1 -0 -2 -0 -1 -1 -1 -1 -1 0 1 2 0 -1 -1 0 -1 -1 -0 -2
1 -0 1 -1 -0 1 -2 -2 -1 0 0 -0 -0 0 -1 -2 -1 -1 -1 -2 -1 -2 -1 -0 0 -0 0 1 2 -0 -0 1 2 0 0 -1 -1 0 1 -1 1 -0 -2
-1 1 1 -1 0 0 -0 -1 -2 -0 -1 -0 0 0 -2 -2 -1 -2 -2 -0 -3 -3 -1 -1 0 -1 -1 0 1 1 1 2 1 0 -0 -1 -2 0 -1 -0 -0 -2 -2
-1 0 -0 -0 -0 0 -2 -2 -1 1 -0 -2 -1 -1 -1 -1 -3 -3 -1 -3 -4 -2 0 -0 -0 -3 -2 -3 -2 -1 -2 -1 -1 -1 -2 -1 -1 -1 -2 -2 -0 0 0
-0 -1 0 1 1 -2 -1 -1 -1 1 -0 -2 -1 -1 -1 -2 -2 -2 -3 -3 -2 -2 -1 -3 -1 0 0 -0 -2 -1 -1 -2 -1 -1 -1 -0 -1 -1 -0 -1 -1 -1 -0
-1 -0 1 2 -1 0 -1 -2 -1 0 -1 -2 -1 -1 -1 -2 -2 -2 -5 -1 -2 -3 -3 -2 -2 0 -1 -1 -1 -1 -0 -1 -1 -0 -0 -0 -0 -1 -0 -1 -2 -1 -0
-1 1 -0 0 1 0 -2 -2 1 -1 -1 -1 -1 -1 -1 -1 -2 -4 -1 -1 0 -1 -3 -1 -2 -1 -1 -1 -0 -1 0 -0 -2 -2 -0 0 -0 1 0 0 1 1 1
1 0 0 1 1 -3 -2 -0 1 -0 0 -1 -1 -0 -2 -2 -1 -1 -1 -0 0 -2 -1 -1 0 1 1 1 -0 -0 -0 -0 1 1 0 0 0 0 0 -1 -0 -0 -1
-0 2 -1 1 -2 -1 -1 -0 -0 1 1 -2 0 -1 -3 -1 -1 -0 0 -1 -1 -1 -2 -2 -2 -1 -1 0 -1 -0 -0 -1 -0 -5 -3 -2 -2 -2 -1 -2 -1 -1 0
2 -3 1 -1 -1 -1 0 0 1 1 -0 -1 -1 -4 -2 -1 0 -0 -0 -2 -2 -1 -1 -3 -2 -2 -2 -2 -0 1 3 4 3 6 -1 2 1 1 -0 -1 -2 -2 -2
0 1 -1 -1 0 1 0 2 0 1 -2 0 -3 -2 -2 -0 -1 -0 -1 -0 -2 -2 -1 -2 -2 -3 -3 -2 -2 -1 -1 -1 -1 1 2 -0 1 0 1 2 0 -1 1
-0 -1 -1 -1 1 2 2 1 0 -0 -2 -1 -0 -1 -1 0 0 -0 0 1 -1 -1 -0 -1 -0 -1 -2 -2 -1 -1 -0 0 -1 1 2 0 -1 2 2 1 0 -0 -1
Height
5897 5898 5897 5898 5897 5898 5899 5898 5898 5898 5898 5897 5897 5897 5896 5896 5896 5895 5894 5894 5893 5892 5891 5890 5889 5888 5887 5886 5885 5883 5882 5881 5881 5880 5879 5878 5877 5876 5876 5875 5875 5875 5874
5897 5898 5898 5898 5898 5898 5898 5898 5898 5898 5898 5897 5897 5896 5895 5894 5894 5893 5892 5891 5890 5889 5888 5887 5886 5885 5884 5883 5882 5881 5879 5879 5878 5877 5876 5875 5874 5873 5872 5871 5871 5871 5870
5897 5898 5898 5898 5898 5898 5898 5898 5898 5898 5897 5896 5895 5895 5894 5893 5892 5891 5890 5888 5887 5886 5885 5884 5883 5882 5881 5880 5879 5877 5876 5875 5875 5873 5872 5871 5870 5869 5868 5867 5866 5866 5866
5896 5898 5898 5898 5898 5898 5898 5898 5898 5898 5897 5895 5894 5893 5892 5891 5889 5888 5886 5885 5883 5882 5881 5880 5879 5878 5877 5876 5875 5873 5872 5872 5870 5868 5867 5865 5864 5863 5863 5862 5862 5861 5861
5895 5897 5897 5897 5897 5897 5897 5897 5897 5896 5895 5894 5892 5891 5890 5888 5887 5885 5883 5882 5880 5879 5877 5876 5874 5873 5872 5872 5870 5869 5867 5867 5865 5863 5862 5861 5859 5858 5857 5856 5856 5855 5855
5894 5895 5896 5896 5896 5896 5896 5895 5895 5894 5893 5892 5890 5889 5887 5886 5884 5882 5880 5878 5876 5875 5873 5872 5871 5869 5868 5867 5866 5864 5862 5861 5860 5859 5857 5855 5854 5853 5852 5851 5850 5849 5848
5892 5893 5894 5895 5895 5895 5894 5894 5893 5892 5891 5889 5888 5886 5885 5883 5880 5877 5875 5874 5872 5871 5870 5869 5867 5865 5864 5862 5861 5859 5857 5856 5854 5853 5852 5851 5849 5848 5846 5846 5845 5844 5844
5890 5892 5893 5893 5894 5893 5892 5892 5891 5890 5889 5887 5885 5883 5881 5878 5876 5874 5872 5871 5870 5868 5866 5865 5863 5861 5860 5858 5856 5854 5852 5850 5848 5847 5846 5845 5844 5842 5840 5840 5840 5839 5838
5888 5890 5891 5891 5891 5891 5891 5890 5889 5887 5886 5884 5882 5879 5876 5874 5872 5871 5869 5868 5866 5865 5863 5861 5859 5857 5855 5853 5850 5848 5846 5844 5842 5840 5838 5837 5837 5836 5835 5833 5832 5832 5831
5886 5887 5889 5889 5889 5889 5888 5887 5886 5885 5883 5881 5878 5875 5873 5871 5869 5868 5866 5865 5863 5861 5860 5857 5855 5852 5850 5847 5844 5842 5839 5837 5835 5832 5831 5829 5828 5828 5827 5826 5825 5824 5823
5883 5884 5886 5887 5887 5886 5886 5884 5883 5881 5879 5877 5874 5872 5870 5869 5867 5865 5864 5862 5859 5857 5855 5852 5849 5847 5843 5840 5837 5834 5831 5829 5826 5824 5822 5821 5820 5819 5818 5817 5816 5816 5815
5880 5882 5883 5884 5884 5884 5883 5881 5879 5878 5875 5873 5871 5869 5867 5866 5864 5862 5860 5858 5855 5852 5849 5846 5843 5840 5837 5833 5830 5826 5823 5820 5816 5814 5813 5812 5811 5810 5809 5808 5808 5807 5806
5877 5879 5880 5880 5881 5880 5879 5877 5876 5873 5871 5869 5868 5866 5864 5862 5861 5859 5856 5853 5850 5847 5843 5839 5836 5832 5829 5825 5821 5818 5815 5813 5811 5809 5808 5807 5806 5805 5804 5803 5802 5801 5800
5874 5875 5876 5877 5877 5876 5874 5873 5872 5869 5867 5866 5864 5862 5860 5858 5856 5854 5851 5847 5843 5839 5835 5831 5828 5824 5821 5817 5815 5813 5811 5809 5807 5806 5804 5803 5802 5800 5799 5798 5797 5797 5796
5870 5872 5873 5873 5873 5872 5870 5869 5867 5865 5863 5861 5860 5858 5856 5854 5851 5848 5844 5839 5834 5830 5826 5823 5819 5816 5813 5811 5811 5809 5806 5804 5803 5802 5801 5799 5797 5795 5793 5793 5792 5791 5790
5866 5868 5869 5869 5869 5868 5866 5864 5862 5860 5859 5857 5855 5853 5851 5848 5845 5841 5836 5830 5825 5821 5817 5814 5812 5810 5809 5807 5805 5803 5801 5800 5799 5798 5797 5794 5792 5790 5789 5788 5788 5787 5787
5863 5864 5865 5865 5864 5863 5862 5860 5858 5856 5854 5852 5850 5848 5845 5842 5838 5833 5827 5821 5817 5813 5810 5809 5807 5806 5804 5802 5800 5799 5797 5796 5795 5794 5792 5790 5789 5788 5786 5785 5784 5783 5782
5859 5860 5861 5860 5859 5858 5857 5855 5853 5851 5849 5847 5845 5843 5839 5835 5831 5825 5820 5815 5811 5808 5807 5805 5804 5802 5799 5797 5795 5794 5793 5792 5791 5790 5788 5787 5785 5784 5783 5781 5780 5779 5777
5854 5855 5856 5855 5854 5854 5852 5850 5848 5846 5844 5842 5839 5836 5833 5829 5824 5819 5815 5810 5807 5805 5803 5801 5799 5797 5795 5794 5792 5790 5789 5788 5787 5785 5784 5782 5780 5779 5777 5776 5774 5773 5771
5849 5850 5850 5850 5850 5848 5846 5844 5842 5841 5838 5836 5834 5830 5827 5823 5818 5815 5811 5806 5802 5799 5798 5797 5794 5793 5791 5789 5788 5786 5784 5783 5781 5779 5777 5776 5774 5772 5771 5769 5767 5765 5764
5844 5844 5845 5845 5844 5842 5841 5839 5836 5835 5833 5830 5828 5824 5821 5817 5814 5811 5808 5804 5800 5796 5794 5792 5791 5788 5786 5784 5782 5780 5778 5776 5774 5772 5770 5769 5767 5765 5763 5761 5759 5757 5755
5838 5840 5840 5839 5838 5837 5835 5833 5831 5829 5827 5825 5822 5818 5815 5811 5809 5807 5804 5801 5798 5794 5791 5789 5787 5784 5782 5779 5777 5775 5773 5771 5768 5765 5763 5761 5759 5757 5755 5753 5750 5748 5745
5833 5834 5834 5833 5832 5831 5829 5827 5825 5823 5821 5819 5815 5812 5808 5805 5803 5801 5798 5796 5793 5791 5788 5785 5782 5778 5776 5773 5771 5769 5766 5764 5761 5758 5755 5753 5751 5748 5745 5743 5740 5738 5736
5827 5828 5828 5827 5826 5824 5822 5821 5819 5817 5815 5812 5808 5804 5801 5799 5797 5795 5792 5790 5788 5785 5782 5779 5776 5772 5769 5766 5763 5760 5758 5756 5753 5752 5748 5745 5743 5740 5737 5734 5731 5729 5726
5821 5822 5822 5821 5820 5818 5816 5815 5813 5810 5807 5804 5801 5797 5794 5792 5790 5787 5785 5783 5782 5779 5776 5772 5769 5765 5762 5759 5757 5753 5750 5747 5745 5742 5739 5737 5734 5730 5727 5724 5721 5719 5716
5815 5816 5816 5815 5813 5811 5810 5808 5806 5803 5800 5797 5793 5790 5787 5785 5783 5781 5779 5777 5775 5771 5768 5765 5761 5758 5755 5752 5749 5746 5743 5740 5737 5734 5730 5727 5723 5720 5716 5712 5710 5707 5704